{"data":{"norad_id":66805,"epoch":"2026-05-25T02:42:35.355744Z","epoch_age_seconds":66029,"freshness":"FRESH","line1":"1 66805U 25278Q   26145.11290921  .00021759  00000+0  79748-3 0  9993","line2":"2 66805  43.0046  43.0650 0001355 259.7138 100.3561 15.27597292 26891","mean_motion":15.27597292,"eccentricity":0.0001355,"inclination_deg":43.0046,"raan_deg":43.065,"arg_perigee_deg":259.7138,"mean_anomaly_deg":100.3561,"bstar":0.00079748,"rev_number":2689,"period_min":94.265681638823,"perigee_km":482.06763435922,"apogee_km":483.92700175942,"semimajor_km":6861.1343180593,"source":"CELESTRAK","updated_at":"2026-05-25T13:38:21.329581Z"}}